Time,TemperatureF,DewpointF,PressureIn,WindDirection,WindDirectionDegrees,WindSpeedMPH,WindSpeedGustMPH,Humidity,HourlyPrecipIn,Conditions,Clouds,dailyrainin,SoftwareType,DateUTC
2013-01-22 00:00:00,37.0,-6.0,-100.00,WSW,251,8.0,10.0,15,0.00,,,0.00,,2013-01-22 07:00:00,
2013-01-22 00:32:00,37.0,-6.0,-100.00,WSW,251,8.0,10.0,15,0.00,,,0.00,,2013-01-22 07:32:00,
2013-01-22 00:42:00,37.0,-6.0,-100.00,WSW,251,8.0,10.0,15,0.00,,,0.00,,2013-01-22 07:42:00,
2013-01-22 00:52:00,37.0,-6.0,-100.00,WSW,251,8.0,10.0,15,0.00,,,0.00,,2013-01-22 07:52:00,
2013-01-22 01:42:00,38.0,-8.0,-100.00,West,267,7.0,15.0,13,0.00,,,0.00,,2013-01-22 08:42:00,
2013-01-22 01:52:00,38.0,-8.0,-100.00,West,267,7.0,15.0,13,0.00,,,0.00,,2013-01-22 08:52:00,
2013-01-22 02:00:00,36.0,-7.0,-100.00,SSE,166,1.0,4.0,15,0.00,,,0.00,,2013-01-22 09:00:00,
2013-01-22 02:42:00,36.0,-7.0,-100.00,SSE,166,1.0,4.0,15,0.00,,,0.00,,2013-01-22 09:42:00,
2013-01-22 02:52:00,36.0,-7.0,-100.00,SSE,166,1.0,4.0,15,0.00,,,0.00,,2013-01-22 09:52:00,
2013-01-22 03:42:00,41.0,-11.0,-100.00,WSW,253,12.0,19.0,10,0.00,,,0.00,,2013-01-22 10:42:00,
2013-01-22 03:52:00,41.0,-11.0,-100.00,WSW,253,12.0,19.0,10,0.00,,,0.00,,2013-01-22 10:52:00,
2013-01-22 04:42:00,42.0,-13.0,-100.00,WSW,246,11.0,17.0,9,0.00,,,0.00,,2013-01-22 11:42:00,
2013-01-22 04:53:00,42.0,-13.0,-100.00,WSW,246,11.0,17.0,9,0.00,,,0.00,,2013-01-22 11:53:00,
2013-01-22 05:43:00,42.0,-13.0,-100.00,WSW,248,15.0,21.0,9,0.00,,,0.00,,2013-01-22 12:43:00,
2013-01-22 05:53:00,42.0,-13.0,-100.00,WSW,248,15.0,21.0,9,0.00,,,0.00,,2013-01-22 12:53:00,
2013-01-22 06:33:00,40.0,-16.0,-100.00,NNE,25,3.0,9.0,8,0.00,,,0.00,,2013-01-22 13:33:00,
2013-01-22 07:00:00,35.0,-10.0,-100.00,West,267,6.0,8.0,14,0.00,,,0.00,,2013-01-22 14:00:00,
2013-01-22 07:43:00,35.0,-10.0,-100.00,West,267,6.0,8.0,14,0.00,,,0.00,,2013-01-22 14:43:00,
2013-01-22 07:53:00,35.0,-10.0,-100.00,West,267,6.0,8.0,14,0.00,,,0.00,,2013-01-22 14:53:00,
2013-01-22 08:43:00,40.0,-12.0,-100.00,West,275,9.0,13.0,10,0.00,,,0.00,,2013-01-22 15:43:00,
2013-01-22 08:53:00,40.0,-12.0,-100.00,West,275,9.0,13.0,10,0.00,,,0.00,,2013-01-22 15:53:00,
2013-01-22 09:43:00,41.0,-9.0,-100.00,WSW,248,8.0,10.0,11,0.00,,,0.00,,2013-01-22 16:43:00,
2013-01-22 09:53:00,41.0,-9.0,-100.00,WSW,248,8.0,10.0,11,0.00,,,0.00,,2013-01-22 16:53:00,
2013-01-22 10:00:00,38.0,-2.0,-100.00,WSW,237,4.0,5.0,18,0.00,,,0.00,,2013-01-22 17:00:00,
2013-01-22 10:43:00,38.0,-2.0,-100.00,WSW,237,4.0,5.0,18,0.00,,,0.00,,2013-01-22 17:43:00,
2013-01-22 10:53:00,38.0,-2.0,-100.00,WSW,237,4.0,5.0,18,0.00,,,0.00,,2013-01-22 17:53:00,
2013-01-22 11:00:00,42.0,1.0,-100.00,SW,229,3.0,7.0,17,0.00,,,0.00,,2013-01-22 18:00:00,
2013-01-22 11:43:00,42.0,1.0,-100.00,SW,229,3.0,7.0,17,0.00,,,0.00,,2013-01-22 18:43:00,
2013-01-22 11:53:00,42.0,1.0,-100.00,SW,229,3.0,7.0,17,0.00,,,0.00,,2013-01-22 18:53:00,
2013-01-22 12:00:00,47.0,1.0,-100.00,WSW,256,4.0,5.0,14,0.00,,,0.00,,2013-01-22 19:00:00,
2013-01-22 12:43:00,47.0,1.0,-100.00,WSW,256,4.0,5.0,14,0.00,,,0.00,,2013-01-22 19:43:00,
2013-01-22 12:54:00,47.0,1.0,-100.00,WSW,256,4.0,5.0,14,0.00,,,0.00,,2013-01-22 19:54:00,
2013-01-22 13:42:00,47.0,-3.0,-100.00,NE,52,5.0,6.0,12,0.00,,,0.00,,2013-01-22 20:42:00,
2013-01-22 13:53:00,47.0,-3.0,-100.00,NE,52,5.0,6.0,12,0.00,,,0.00,,2013-01-22 20:53:00,
2013-01-22 14:43:00,49.0,0.0,-100.00,SSW,205,3.0,4.0,13,0.00,,,0.00,,2013-01-22 21:43:00,
2013-01-22 14:53:00,49.0,0.0,-100.00,SSW,205,3.0,4.0,13,0.00,,,0.00,,2013-01-22 21:53:00,
2013-01-22 15:43:00,47.0,0.0,-100.00,ENE,66,7.0,8.0,14,0.00,,,0.00,,2013-01-22 22:43:00,
2013-01-22 15:53:00,47.0,0.0,-100.00,ENE,66,7.0,8.0,14,0.00,,,0.00,,2013-01-22 22:53:00,
2013-01-22 16:33:00,45.0,12.0,-100.00,WSW,253,2.0,2.0,25,0.00,,,0.00,,2013-01-22 23:33:00,
2013-01-22 16:42:00,45.0,12.0,-100.00,WSW,253,2.0,2.0,25,0.00,,,0.00,,2013-01-22 23:42:00,
2013-01-22 16:53:00,45.0,12.0,-100.00,WSW,253,2.0,2.0,25,0.00,,,0.00,,2013-01-22 23:53:00,
2013-01-22 17:00:00,36.0,9.0,-100.00,SW,232,8.0,8.0,31,0.00,,,0.00,,2013-01-23 00:00:00,
2013-01-22 17:42:00,36.0,9.0,-100.00,SW,232,8.0,8.0,31,0.00,,,0.00,,2013-01-23 00:42:00,
2013-01-22 17:52:00,36.0,9.0,-100.00,SW,232,8.0,8.0,31,0.00,,,0.00,,2013-01-23 00:52:00,
2013-01-22 18:43:00,40.0,0.0,-100.00,West,261,5.0,8.0,18,0.00,,,0.00,,2013-01-23 01:43:00,
2013-01-22 18:53:00,40.0,0.0,-100.00,West,261,5.0,8.0,18,0.00,,,0.00,,2013-01-23 01:53:00,
2013-01-22 19:42:00,45.0,-8.0,-100.00,WNW,287,9.0,13.0,10,0.00,,,0.00,,2013-01-23 02:42:00,
2013-01-22 19:53:00,45.0,-8.0,-100.00,WNW,287,9.0,13.0,10,0.00,,,0.00,,2013-01-23 02:53:00,
2013-01-22 20:32:00,40.0,-5.0,-100.00,WSW,243,9.0,10.0,14,0.00,,,0.00,,2013-01-23 03:32:00,
2013-01-22 20:42:00,40.0,-5.0,-100.00,WSW,243,9.0,10.0,14,0.00,,,0.00,,2013-01-23 03:42:00,
2013-01-22 20:53:00,40.0,-5.0,-100.00,WSW,243,9.0,10.0,14,0.00,,,0.00,,2013-01-23 03:53:00,
2013-01-22 21:00:00,38.0,-4.0,-100.00,WSW,238,12.0,14.0,16,0.00,,,0.00,,2013-01-23 04:00:00,
2013-01-22 21:32:00,38.0,-4.0,-100.00,WSW,238,12.0,14.0,16,0.00,,,0.00,,2013-01-23 04:32:00,
2013-01-22 21:43:00,38.0,-4.0,-100.00,WSW,238,12.0,14.0,16,0.00,,,0.00,,2013-01-23 04:43:00,
2013-01-22 21:53:00,38.0,-4.0,-100.00,WSW,238,12.0,14.0,16,0.00,,,0.00,,2013-01-23 04:53:00,
2013-01-22 22:00:00,39.0,-6.0,-100.00,SW,228,12.0,16.0,14,0.00,,,0.00,,2013-01-23 05:00:00,
2013-01-22 22:33:00,39.0,-6.0,-100.00,SW,228,12.0,16.0,14,0.00,,,0.00,,2013-01-23 05:33:00,
2013-01-22 22:43:00,39.0,-6.0,-100.00,SW,228,12.0,16.0,14,0.00,,,0.00,,2013-01-23 05:43:00,
2013-01-22 22:53:00,39.0,-6.0,-100.00,SW,228,12.0,16.0,14,0.00,,,0.00,,2013-01-23 05:53:00,
2013-01-22 23:00:00,36.0,-2.0,-100.00,West,260,11.0,13.0,19,0.00,,,0.00,,2013-01-23 06:00:00,
2013-01-22 23:42:00,36.0,-2.0,-100.00,West,260,11.0,13.0,19,0.00,,,0.00,,2013-01-23 06:42:00,
2013-01-22 23:53:00,36.0,-2.0,-100.00,West,260,11.0,13.0,19,0.00,,,0.00,,2013-01-23 06:53:00,